Flint, MI

3:29 PM EDT on September 22, 2019 (GMT -0400)
Bishop International

Weather History for KFNT - July, 2019

Change the Weather History Date:

Sunday, July 21, 2019

  Actual Average Record
Temperature  
Mean Temperature 77 °F 71 °F  
Max Temperature 85 °F 82 °F 102 °F (1934)
Min Temperature 68 °F 59 °F 44 °F (1958)
Degree Days  
Heating Degree Days 0 0  
Month to date heating degree days 0 10  
Since 1 June heating degree days 52 76  
Since 1 July heating degree days 0 10  
Cooling Degree Days 12 6  
Month to date cooling degree days 238 126  
Year to date cooling degree days 347 270  
Since 1 June cooling degree days 338 238  
Growing Degree Days 27 (Base 50)    
Moisture  
Dew Point 66 °F    
Average Humidity 64    
Maximum Humidity 90    
Minimum Humidity 37    
Precipitation  
Precipitation 0.10 in 0.11 in 1.64 in (1932)
Month to date precipitation 1.76 2.15  
Year to date precipitation 20.49 16.21  
Snow  
Snow 0.00 in 0.00 in 0.00 in ()
Month to date snowfall 0.0 0.0  
Since 1 June snowfall 0.0 0.0  
Since 1 July snowfall 0.0 0.0  
Snow Depth 0.00 in    
Sea Level Pressure  
Sea Level Pressure 29.94 in    
Wind  
Wind Speed 5 mph (North)    
Max Wind Speed 13 mph    
Max Gust Speed 16 mph    
Visibility 10 miles    
Events Rain , Thunderstorm    
T = Trace of Precipitation, MM = Missing Value Source: NWS Daily Summary

Daily Weather History Graph

Daily Weather History Graph

Search for Another Location

Airport or City:

Astronomy

Jul. 21, 2019 Rise Set
Actual Time 6:14 AM EDT 9:07 PM EDT
Civil Twilight 5:41 AM EDT 9:40 PM EDT
Nautical Twilight 4:58 AM EDT 10:23 PM EDT
Astronomical Twilight 4:09 AM EDT 11:12 PM EDT
Moon 11:55 PM EDT (7/21) 10:39 AM EDT (7/21)
Length of Visible Light 15h 59m
Length of Day
14h 52m
Waning Gibbous, 80% of the Moon is Illuminated
Jul 21
Waning Gibbous
Jul 24
Last Quarter
Jul 31
New
Aug 7
First Quarter
Aug 15
Full

Hourly Weather History & Observations

Time (EDT) Temp. Heat Index Dew Point Humidity Pressure Visibility Wind Dir Wind Speed Gust Speed Precip Events Conditions
12:12 AM 73.9 °F - 69.1 °F 85% 29.92 in 10.0 mi NW 9.2 mph - N/A   Mostly Cloudy
12:29 AM 73.9 °F - 68.0 °F 82% 29.93 in 10.0 mi NNW 10.4 mph - N/A   Mostly Cloudy
12:42 AM 73.9 °F - 68.0 °F 82% 29.93 in 10.0 mi NNW 9.2 mph - N/A   Mostly Cloudy
12:53 AM 73.9 °F - 68.0 °F 82% 29.91 in 10.0 mi North 6.9 mph - N/A   Overcast
1:53 AM 73.0 °F - 66.9 °F 81% 29.92 in 10.0 mi North 4.6 mph - N/A   Mostly Cloudy
2:53 AM 73.0 °F - 66.9 °F 81% 29.91 in 10.0 mi NNW 5.8 mph - N/A   Mostly Cloudy
3:46 AM 71.1 °F - 66.9 °F 87% 29.90 in 10.0 mi SSW 3.5 mph - N/A   Partly Cloudy
3:53 AM 71.1 °F - 66.9 °F 87% 29.88 in 10.0 mi SSW 4.6 mph - N/A   Partly Cloudy
4:53 AM 70.0 °F - 66.9 °F 90% 29.90 in 10.0 mi SSW 3.5 mph - N/A   Mostly Cloudy
5:26 AM 71.1 °F - 68.0 °F 90% 29.93 in 10.0 mi WNW 3.5 mph - 0.00 in Rain , Thunderstorm Light Thunderstorms and Rain
5:41 AM 71.1 °F - 68.0 °F 90% 29.95 in 10.0 mi WSW 4.6 mph - 0.00 in Rain , Thunderstorm Light Rain
5:53 AM 71.1 °F - 68.0 °F 90% 29.94 in 10.0 mi West 5.8 mph - 0.00 in Rain Light Rain
6:53 AM 71.1 °F - 68.0 °F 90% 29.90 in 9.0 mi North 9.2 mph - 0.06 in Rain Light Rain
7:30 AM 72.0 °F - 68.0 °F 87% 29.92 in 10.0 mi Variable 3.5 mph - 0.01 in   Mostly Cloudy
7:51 AM 71.6 °F - 68.0 °F 88% 29.95 in 10.0 mi WSW 5.8 mph - 0.01 in   Mostly Cloudy
7:53 AM 72.0 °F - 68.0 °F 87% 29.95 in 10.0 mi WSW 6.9 mph - 0.01 in   Overcast
8:20 AM 72.0 °F - 68.0 °F 87% 29.97 in 10.0 mi West 5.8 mph - N/A   Overcast
8:53 AM 73.0 °F - 69.1 °F 87% 29.93 in 10.0 mi NNE 3.5 mph - 0.01 in Rain Light Rain
9:14 AM 72.0 °F - 68.0 °F 87% 29.96 in 7.0 mi North 5.8 mph - 0.00 in Rain Light Rain
9:22 AM 71.6 °F - 68.0 °F 88% 29.96 in 10.0 mi NNE 4.6 mph - N/A Rain Light Rain
9:33 AM 73.0 °F - 68.0 °F 84% 29.97 in 10.0 mi Calm Calm - 0.01 in Rain Light Rain
9:53 AM 73.0 °F - 69.1 °F 87% 29.97 in 10.0 mi NW 5.8 mph - 0.02 in Rain Light Rain
10:10 AM 73.0 °F - 69.1 °F 87% 29.97 in 10.0 mi NNW 3.5 mph - 0.00 in Rain Light Rain
10:27 AM 73.0 °F - 68.0 °F 84% 29.96 in 10.0 mi NE 5.8 mph - 0.00 in   Overcast
10:53 AM 73.9 °F - 69.1 °F 85% 29.95 in 10.0 mi NE 5.8 mph - 0.00 in   Mostly Cloudy
11:28 AM 75.9 °F - 69.1 °F 79% 29.96 in 10.0 mi ENE 5.8 mph - N/A   Mostly Cloudy
11:35 AM 75.9 °F - 68.0 °F 76% 29.96 in 10.0 mi ENE 5.8 mph - N/A   Partly Cloudy
11:49 AM 75.2 °F - 68.0 °F 78% 29.96 in 10.0 mi East 5.8 mph - N/A   Mostly Cloudy
11:53 AM 77.0 °F - 68.0 °F 74% 29.94 in 10.0 mi East 5.8 mph - N/A   Mostly Cloudy
12:28 PM 77.0 °F - 66.0 °F 69% 29.97 in 10.0 mi Variable 3.5 mph - N/A   Mostly Cloudy
12:53 PM 77.0 °F - 66.0 °F 69% 29.97 in 10.0 mi Calm Calm - N/A   Overcast
1:49 PM 77.0 °F - 64.4 °F 65% 29.97 in 10.0 mi ENE 4.6 mph - N/A   Overcast
1:53 PM 77.0 °F - 64.9 °F 66% 29.96 in 10.0 mi ENE 4.6 mph - N/A   Overcast
2:53 PM 81.0 °F 82.5 °F 64.0 °F 56% 29.95 in 10.0 mi North 4.6 mph - N/A   Mostly Cloudy
3:53 PM 82.9 °F 82.8 °F 59.0 °F 44% 29.94 in 10.0 mi North 6.9 mph - N/A   Overcast
4:53 PM 84.0 °F 83.0 °F 55.9 °F 38% 29.94 in 10.0 mi NE 5.8 mph - N/A   Scattered Clouds
5:53 PM 82.0 °F 81.7 °F 57.0 °F 42% 29.92 in 10.0 mi NE 8.1 mph - N/A   Mostly Cloudy
6:53 PM 82.0 °F 82.0 °F 57.9 °F 44% 29.91 in 10.0 mi NE 9.2 mph - N/A   Mostly Cloudy
7:53 PM 81.0 °F 81.1 °F 57.9 °F 45% 29.92 in 10.0 mi NE 8.1 mph - N/A   Scattered Clouds
8:53 PM 78.1 °F - 55.9 °F 46% 29.94 in 10.0 mi NE 3.5 mph - N/A   Clear
9:53 PM 73.0 °F - 61.0 °F 66% 29.95 in 9.0 mi Calm Calm - N/A   Scattered Clouds
10:53 PM 73.0 °F - 62.1 °F 68% 29.95 in 10.0 mi Calm Calm - N/A   Clear
11:53 PM 70.0 °F - 60.1 °F 71% 29.95 in 10.0 mi South 3.5 mph - N/A   Scattered Clouds